GW4318 Weather Reports


Display with metric or nautical units.
time (UTC)temp
F
wind
direction
speed
MPH
gust
MPH
rain 1hr
in
rain 24hr
in
rain mn
in
humidity
%
barometer
mb
20260504050522 36 311 0.0 2.0 0.00 0.00 0.00 86 1010.3
20260504045521 34 310 0.0 2.0 0.00 0.00 0.00 92 1010.5
20260504044522 33 0.0 0.0 0.00 0.00 0.00 92 1010.5
20260504043522 33 267 0.0 1.0 0.00 0.00 0.00 92 1010.5
20260504042525 33 7 0.0 1.0 0.00 0.00 0.00 92 1010.5
20260504041522 33 0.0 0.0 0.00 0.00 0.00 93 1010.5
20260504040522 34 0.0 0.0 0.00 0.00 0.00 92 1010.4
20260504035522 34 0.0 0.0 0.00 0.00 0.00 91 1010.4
20260504034520 34 0.0 0.0 0.00 0.00 0.00 90 1010.2
20260504033525 35 0.0 0.0 0.00 0.00 0.00 89 1010.2
20260504032522 35 33 0.0 1.0 0.00 0.00 0.00 89 1010.2
20260504031517 35 50 0.0 1.0 0.00 0.00 0.00 88 1010.2
20260504030517 35 108 0.0 1.0 0.00 0.00 0.00 89 1010.2
20260504025518 35 56 0.0 1.0 0.00 0.00 0.00 88 1010.2
20260504024517 36 13 0.0 1.0 0.00 0.00 0.00 86 1010.1
20260504023518 36 128 0.0 1.0 0.00 0.00 0.00 85 1010.1
20260504022518 36 39 0.0 1.0 0.00 0.00 0.00 83 1010.1
20260504021518 37 212 0.0 0.0 0.00 0.00 0.00 82 1010.0
20260504020518 37 22 0.0 1.0 0.00 0.00 0.00 82 1010.0
20260504015520 38 294 0.0 1.0 0.00 0.00 0.00 80 1010.0
20260504014518 38 15 0.0 1.0 0.00 0.00 0.00 77 1010.0
20260504013518 39 31 0.0 1.0 0.00 0.00 0.00 77 1009.9
20260504012518 39 10 0.0 1.0 0.00 0.00 0.00 74 1009.9
20260504011519 40 210 0.0 1.0 0.00 0.00 0.00 72 1009.8
20260504010539 41 23 0.0 1.0 0.00 0.00 0.00 71 1009.7
20260504005519 42 45 0.0 1.0 0.00 0.00 0.00 69 1009.6
20260504004516 43 29 0.0 1.0 0.00 0.00 0.00 65 1009.4
20260504003516 44 0.0 0.0 0.00 0.00 0.00 61 1009.3
20260504002519 45 62 0.0 1.0 0.00 0.00 0.00 59 1009.2
20260504001517 47 60 0.0 1.0 0.00 0.00 0.00 54 1009.0
20260504000517 49 8 0.0 1.0 0.00 0.00 0.00 51 1008.9
20260503235517 49 335 1.0 2.0 0.00 0.00 0.00 49 1008.8
20260503234522 50 299 1.0 6.0 0.00 0.00 0.00 49 1008.7
20260503233517 51 294 1.0 5.0 0.00 0.00 0.00 46 1008.5
20260503232518 51 316 2.0 3.0 0.00 0.00 0.00 44 1008.4
20260503231518 51 333 3.0 5.0 0.00 0.00 0.00 44 1008.3
20260503230518 51 288 3.0 6.0 0.00 0.00 0.00 43 1008.1
20260503225538 52 305 3.0 6.0 0.00 0.00 0.00 43 1008.0
20260503224518 52 317 3.0 7.0 0.00 0.00 0.00 41 1007.9
20260503223518 52 313 4.0 8.0 0.00 0.00 0.00 42 1007.8
20260503222518 52 296 4.0 8.0 0.00 0.00 0.00 43 1007.7
20260503221543 52 324 3.0 6.0 0.00 0.00 0.00 42 1007.5
20260503220518 52 296 4.0 8.0 0.00 0.01 0.00 42 1007.3
20260503215539 52 318 3.0 9.0 0.00 0.01 0.00 43 1007.3
20260503214518 52 294 3.0 7.0 0.00 0.01 0.00 44 1007.2
20260503213519 52 304 3.0 9.0 0.00 0.01 0.00 43 1007.0
20260503212542 52 324 3.0 6.0 0.00 0.01 0.00 44 1006.9
20260503211536 52 316 4.0 8.0 0.00 0.01 0.00 44 1006.9
20260503210519 52 303 3.0 7.0 0.00 0.01 0.00 44 1006.7
20260503205519 52 304 4.0 6.0 0.00 0.01 0.00 44 1006.5
20260503204516 53 308 4.0 8.0 0.00 0.01 0.00 45 1006.4
20260503203537 53 298 4.0 7.0 0.00 0.01 0.00 44 1006.3
20260503202640 53 288 4.0 10.0 0.00 0.01 0.00 44 1006.2
20260503201517 53 291 4.0 7.0 0.00 0.01 0.00 45 1006.1
20260503200517 53 319 4.0 7.0 0.00 0.01 0.00 45 1006.1
20260503195520 52 336 3.0 6.0 0.00 0.01 0.00 46 1006.0
20260503194543 52 289 3.0 6.0 0.00 0.01 0.00 48 1006.2
20260503193520 52 311 3.0 5.0 0.00 0.01 0.00 49 1006.3
20260503192519 52 298 2.0 4.0 0.00 0.01 0.00 50 1006.3
20260503191522 52 297 3.0 8.0 0.00 0.01 0.00 49 1006.3
20260503190517 52 318 3.0 5.0 0.00 0.01 0.00 51 1006.3
20260503185518 52 302 3.0 4.0 0.00 0.01 0.00 51 1006.2
20260503184518 53 301 3.0 5.0 0.00 0.01 0.00 51 1006.2
20260503183518 52 355 1.0 5.0 0.00 0.01 0.00 52 1006.2
20260503182520 52 333 3.0 5.0 0.00 0.01 0.00 52 1006.3
20260503181518 51 347 3.0 6.0 0.00 0.01 0.00 52 1006.3
20260503180518 51 2 3.0 7.0 0.00 0.01 0.00 55 1006.4
20260503175518 50 322 3.0 9.0 0.00 0.01 0.00 56 1006.5
20260503174539 50 290 4.0 9.0 0.00 0.01 0.00 58 1006.5
20260503173516 51 320 3.0 7.0 0.00 0.01 0.00 57 1006.4
20260503172519 50 332 3.0 7.0 0.00 0.01 0.00 57 1006.4
20260503171520 50 301 4.0 10.0 0.00 0.01 0.00 57 1006.4
20260503170521 50 294 4.0 8.0 0.00 0.01 0.00 57 1006.4
20260503150517 45 319 3.0 6.0 0.00 0.01 0.00 79 1006.5
20260503130519 44 354 3.0 7.0 0.00 0.03 0.00 82 1006.7
20260503110540 42 307 2.0 3.0 0.00 0.09 0.00 85 1007.2
20260503081522 44 318 2.0 2.0 0.00 0.10 0.00 87 1008.0
20260503080522 44 328 1.0 2.0 0.00 0.10 0.00 87 1008.3
20260503072524 44 345 2.0 3.0 0.00 0.10 0.00 88 1008.6